Bishop, CA

2:07 PM PDT on July 27, 2017 (GMT -0700)
Bishop

Weather History for KBIH - February, 2014

Change the Weather History Date:

Sunday, February 16, 2014

  Actual Average Record
Temperature  
Mean Temperature 55 °F 42 °F  
Max Temperature 75 °F 58 °F 80 °F (2015)
Min Temperature 35 °F 27 °F 10 °F (2006)
Degree Days  
Heating Degree Days 10 23  
Month to date heating degree days 327 384  
Since 1 July heating degree days 2753 2953  
Cooling Degree Days 0 0  
Month to date cooling degree days 0 0  
Year to date cooling degree days 0 0  
Growing Degree Days 6 (Base 50)    
Moisture  
Dew Point 13 °F    
Average Humidity 32    
Maximum Humidity 58    
Minimum Humidity 5    
Precipitation  
Precipitation 0.00 in 0.03 in 1.28 in (1959)
Month to date precipitation 0.00 0.47  
Year to date precipitation 0.20 1.52  
Snow  
Snow 0.00 in 0.00 in T in (1990)
Month to date snowfall 0.0 0.5  
Since 1 July snowfall 0.5 7.2  
Snow Depth 0.00 in    
Sea Level Pressure  
Sea Level Pressure 29.96 in    
Wind  
Wind Speed 8 mph (NNW)    
Max Wind Speed 24 mph    
Max Gust Speed 28 mph    
Visibility 10 miles    
Events      
T = Trace of Precipitation, MM = Missing Value Source: NWS Daily Summary

Daily Weather History Graph

Daily Weather History Graph

Search for Another Location

Airport or City:

Trip Planner

Search our weather history database for the weather conditions in past years. The results will help you decide how hot, cold, wet, or windy it might be!

Date:

Astronomy

Feb. 16, 2014 Rise Set
Actual Time 6:41 AM PST 5:34 PM PST
Civil Twilight 6:14 AM PST 6:00 PM PST
Nautical Twilight 5:44 AM PST 6:31 PM PST
Astronomical Twilight 5:13 AM PST 7:01 PM PST
Moon 7:32 PM PST (2/16) 7:16 AM PST (2/16)
Length of Visible Light 11h 46m
Length of Day
10h 53m
Full, 97% of the Moon is Illuminated
Feb 16
Full
Feb 22
Last Quarter
Mar 1
New
Mar 8
First Quarter
Mar 16
Full

Hourly Weather History & Observations

Time (PST) Temp. Windchill Dew Point Humidity Pressure Visibility Wind Dir Wind Speed Gust Speed Precip Events Conditions
12:56 AM 57.9 °F - 30.0 °F 35% 29.85 in 10.0 mi ENE 8.1 mph - N/A   Scattered Clouds
1:56 AM 53.1 °F - 28.0 °F 38% 29.88 in 10.0 mi NNW 6.9 mph - N/A   Mostly Cloudy
2:56 AM 52.0 °F - 32.0 °F 47% 29.86 in 10.0 mi NNW 6.9 mph - N/A   Partly Cloudy
3:56 AM 48.9 °F - 30.0 °F 48% 29.85 in 10.0 mi South 10.4 mph - N/A   Clear
4:56 AM 45.0 °F 41.8 °F 30.0 °F 56% 29.87 in 10.0 mi NNW 5.8 mph - N/A   Partly Cloudy
5:56 AM 44.1 °F 38.6 °F 28.9 °F 55% 29.91 in 10.0 mi WNW 10.4 mph - N/A   Mostly Cloudy
6:56 AM 42.1 °F 36.6 °F 27.0 °F 55% 29.94 in 10.0 mi North 9.2 mph - N/A   Clear
7:56 AM 51.1 °F - 28.0 °F 41% 29.95 in 10.0 mi NNW 12.7 mph - N/A   Clear
8:56 AM 60.1 °F - 28.0 °F 30% 29.95 in 10.0 mi NNW 5.8 mph - N/A   Clear
9:56 AM 64.9 °F - 24.1 °F 21% 29.95 in 10.0 mi North 10.4 mph - N/A   Clear
10:56 AM 68.0 °F - 12.0 °F 11% 29.97 in 10.0 mi NNW 9.2 mph - N/A   Clear
11:56 AM 71.1 °F - 8.1 °F 9% 29.95 in 10.0 mi Variable 6.9 mph - N/A   Clear
12:56 PM 70.0 °F - 1.9 °F 7% 29.94 in 10.0 mi West 4.6 mph - N/A   Clear
1:56 PM 73.0 °F - 1.9 °F 6% 29.93 in 10.0 mi NNW 9.2 mph 17.3 mph N/A   Clear
2:56 PM 72.0 °F - -4.0 °F 5% 29.94 in 10.0 mi Variable 4.6 mph - N/A   Clear
3:56 PM 73.0 °F - -4.0 °F 5% 29.95 in 10.0 mi NNW 4.6 mph - N/A   Clear
4:56 PM 71.1 °F - -0.0 °F 6% 29.97 in 10.0 mi North 4.6 mph - N/A   Clear
5:56 PM 59.0 °F - -2.0 °F 8% 30.01 in 10.0 mi North 11.5 mph - N/A   Clear
6:56 PM 55.9 °F - -0.9 °F 10% 30.05 in 10.0 mi WNW 8.1 mph - N/A   Clear
7:56 PM 48.9 °F - -0.9 °F 13% 30.07 in 10.0 mi ENE 5.8 mph - N/A   Clear
8:56 PM 45.0 °F 39.7 °F -0.0 °F 15% 30.07 in 10.0 mi NNW 10.4 mph - N/A   Clear
9:56 PM 39.0 °F 35.7 °F 3.0 °F 22% 30.08 in 10.0 mi ENE 4.6 mph - N/A   Clear
10:56 PM 42.1 °F 36.6 °F 5.0 °F 22% 30.07 in 10.0 mi WNW 9.2 mph - N/A   Clear
11:56 PM 37.9 °F 31.5 °F 6.1 °F 27% 30.08 in 10.0 mi NNW 9.2 mph - N/A   Clear